This is the latest recevied weather packets stored in our database for station/object WW5JC. If no packets are shown the sender has not sent any weather packets the latest 10 day(s).
| Time | Temp. | Humidity | Pressure | Rain* | Wind** | Luminosity | Snow |
|---|---|---|---|---|---|---|---|
| 1788641091 | 37.22° C | 43% | 1013 hPa | 0 mm | - | 159 W/m² | - |
| 1788640791 | 37.78° C | 43% | 1013.1 hPa | 0 mm | - | 539 W/m² | - |
| 1788640486 | 38.33° C | 43% | 1013.2 hPa | 0 mm | - | 582 W/m² | - |
| 1788640182 | 37.78° C | 42% | 1013.2 hPa | 0 mm | - | 564 W/m² | - |
| 1788639877 | 37.22° C | 44% | 1013.3 hPa | 0 mm | - | 577 W/m² | - |
| 1788639572 | 37.78° C | 44% | 1013.4 hPa | 0 mm | - | 632 W/m² | - |
| 1788639267 | 38.33° C | 41% | 1013.5 hPa | 0 mm | - | 632 W/m² | - |
| 1788638967 | 37.78° C | 44% | 1013.7 hPa | 0 mm | - | 621 W/m² | - |
| 1788638663 | 36.67° C | 45% | 1013.7 hPa | 0 mm | - | 657 W/m² | - |
| 1788638361 | 37.78° C | 43% | 1013.8 hPa | 0 mm | - | 653 W/m² | - |
| 1788638056 | 37.22° C | 44% | 1013.8 hPa | 0 mm | - | 633 W/m² | - |
| 1788637752 | 37.22° C | 43% | 1014.1 hPa | 0 mm | - | 637 W/m² | - |
| 1788637451 | 36.67° C | 44% | 1014.3 hPa | 0 mm | - | 664 W/m² | - |
| 1788637151 | 37.78° C | 43% | 1014.2 hPa | 0 mm | - | 672 W/m² | - |
| 1788636846 | 37.22° C | 44% | 1014.2 hPa | 0 mm | - | 667 W/m² | - |
| 1788636542 | 37.22° C | 44% | 1014.2 hPa | 0 mm | - | 679 W/m² | - |
| 1788636237 | 37.22° C | 44% | 1014.5 hPa | 0 mm | - | 669 W/m² | - |
| 1788635937 | 37.22° C | 44% | 1014.4 hPa | 0 mm | - | 674 W/m² | - |
| 1788635636 | 36.67° C | 46% | 1014.5 hPa | 0 mm | - | 690 W/m² | - |
| 1788635329 | 36.67° C | 46% | 1014.7 hPa | 0 mm | - | 693 W/m² | - |
| 1788635022 | 37.22° C | 46% | 1014.6 hPa | 0 mm | - | 689 W/m² | - |
| 1788634721 | 36.67° C | 47% | 1014.7 hPa | 0 mm | - | 627 W/m² | - |
| 1788634417 | 36.67° C | 48% | 1015.2 hPa | 0 mm | - | 680 W/m² | - |
| 1788634115 | 37.22° C | 48% | 1015.2 hPa | 0 mm | - | 685 W/m² | - |
| 1788633815 | 36.11° C | 47% | 1015.3 hPa | 0 mm | - | 721 W/m² | - |
* Rain latest hour (hover to see other rain measurements)
** Current wind speed in m/s (hover to see current wind gust speed)